TimeCST,TemperatureF,Dew PointF,Humidity,Sea Level PressureIn,VisibilityMPH,Wind Direction,Wind SpeedMPH,Gust SpeedMPH,PrecipitationIn,Events,Conditions,WindDirDegrees,DateUTC
12:53 AM,18.0,10.9,74,30.34,10.0,West,10.4,-,N/A,,Clear,270,2013-12-12 06:53:00
1:53 AM,15.1,9.0,77,30.33,10.0,WSW,8.1,-,N/A,,Clear,250,2013-12-12 07:53:00
2:53 AM,15.1,8.1,74,30.34,10.0,WSW,6.9,-,N/A,,Clear,250,2013-12-12 08:53:00
3:53 AM,15.1,8.1,74,30.34,10.0,WSW,4.6,-,N/A,,Clear,240,2013-12-12 09:53:00
4:53 AM,16.0,9.0,74,30.33,10.0,WSW,6.9,-,N/A,,Clear,240,2013-12-12 10:53:00
5:53 AM,18.0,10.9,74,30.32,10.0,West,4.6,-,N/A,,Clear,280,2013-12-12 11:53:00
6:53 AM,17.1,10.0,74,30.35,10.0,WSW,4.6,-,N/A,,Clear,240,2013-12-12 12:53:00
7:53 AM,16.0,10.0,77,30.33,10.0,SSW,3.5,-,N/A,,Clear,210,2013-12-12 13:53:00
8:53 AM,18.0,10.9,74,30.33,10.0,Calm,Calm,-,N/A,,Overcast,0,2013-12-12 14:53:00
9:53 AM,18.0,10.9,74,30.33,10.0,Calm,Calm,-,N/A,,Partly Cloudy,0,2013-12-12 15:53:00
10:53 AM,21.0,12.9,71,30.33,10.0,Calm,Calm,-,N/A,,Scattered Clouds,0,2013-12-12 16:53:00
11:53 AM,25.0,16.0,69,30.29,10.0,SSE,5.8,-,N/A,,Mostly Cloudy,160,2013-12-12 17:53:00
12:53 PM,26.1,16.0,66,30.26,10.0,SE,6.9,-,N/A,,Partly Cloudy,140,2013-12-12 18:53:00
1:53 PM,27.0,18.0,69,30.22,10.0,ESE,5.8,-,N/A,,Unknown,120,2013-12-12 19:53:00
2:53 PM,27.0,17.1,66,30.20,10.0,SSW,6.9,-,N/A,,Clear,210,2013-12-12 20:53:00
3:53 PM,27.0,16.0,63,30.19,10.0,South,4.6,-,N/A,,Clear,180,2013-12-12 21:53:00
4:53 PM,21.0,14.0,74,30.19,10.0,SSE,6.9,-,N/A,,Clear,150,2013-12-12 22:53:00
5:53 PM,21.0,15.1,78,30.16,10.0,SSE,6.9,-,N/A,,Clear,160,2013-12-12 23:53:00
6:53 PM,19.0,15.1,85,30.15,10.0,South,4.6,-,N/A,,Clear,180,2013-12-13 00:53:00
7:53 PM,18.0,14.0,84,30.14,10.0,SSE,5.8,-,N/A,,Clear,160,2013-12-13 01:53:00
8:53 PM,21.0,16.0,81,30.12,10.0,South,4.6,-,N/A,,Clear,190,2013-12-13 02:53:00
9:53 PM,17.1,14.0,88,30.11,10.0,Calm,Calm,-,N/A,,Clear,0,2013-12-13 03:53:00
10:53 PM,15.1,12.9,91,30.10,10.0,Calm,Calm,-,N/A,,Clear,0,2013-12-13 04:53:00
11:53 PM,12.0,10.0,92,30.09,8.0,East,4.6,-,N/A,,Clear,100,2013-12-13 05:53:00